WMT9TD LATI-LIMC

Flight info

Callsign WMT9TD
Flight time N/A
Altitude 36000
Route DIRES DCT PAPIZ DCT PES DCT TUFTE DCT LOMED DCT BEROK DCT MIVKI DCT GOLAS/N0359F180 T648 MEBUR
Aircraft A321/M-SDE1E2E3FGIJ1J4RWXY/LB1

Departure

Time 2026-05-05 16:56
Airport Tirana International Airport Mother Teresa (LATI)

Arrival

Time N/A
Airport Milan Malpensa International Airport (LIMC)
Time Latitude Longitude Altitude Speed Heading
2026-05-05 16:16 41.42027 19.71504 119 ft 0 kts 264°
2026-05-05 16:41 41.42029 19.71526 119 ft 2 kts 264°
2026-05-05 16:41 41.42028 19.71557 118 ft 4 kts 305°
2026-05-05 16:41 41.42008 19.71572 119 ft 4 kts 353°
2026-05-05 16:42 41.41997 19.71574 118 ft 1 kts 354°
2026-05-05 16:42 41.41996 19.71574 118 ft 0 kts 354°
2026-05-05 16:51 41.41999 19.71574 119 ft 1 kts 354°
2026-05-05 16:51 41.42016 19.71571 118 ft 4 kts 354°
2026-05-05 16:52 41.42048 19.71567 119 ft 6 kts 354°
2026-05-05 16:52 41.42094 19.71561 120 ft 8 kts 354°
2026-05-05 16:52 41.42153 19.71553 120 ft 10 kts 354°
2026-05-05 16:52 41.42227 19.71543 118 ft 12 kts 354°
2026-05-05 16:53 41.42313 19.71531 118 ft 13 kts 354°
2026-05-05 16:53 41.42411 19.71517 118 ft 15 kts 354°
2026-05-05 16:53 41.42520 19.71503 117 ft 16 kts 354°
2026-05-05 16:53 41.42606 19.71491 115 ft 7 kts 354°
2026-05-05 16:54 41.42654 19.71502 118 ft 7 kts 45°
2026-05-05 16:54 41.42667 19.71575 115 ft 9 kts 84°
2026-05-05 16:54 41.42672 19.71662 118 ft 10 kts 85°
2026-05-05 16:54 41.42680 19.71760 118 ft 11 kts 84°
2026-05-05 16:55 41.42688 19.71864 117 ft 10 kts 88°
2026-05-05 16:55 41.42650 19.71897 115 ft 6 kts 168°
2026-05-05 16:55 41.42602 19.71905 116 ft 9 kts 174°
2026-05-05 16:55 41.42444 19.71926 117 ft 52 kts 174°
2026-05-05 16:56 41.41842 19.72007 123 ft 120 kts 174°
2026-05-05 16:56 41.40829 19.72143 162 ft 168 kts 175°
2026-05-05 16:56 41.39655 19.72295 778 ft 168 kts 176°
2026-05-05 16:56 41.38502 19.72446 1478 ft 167 kts 176°
2026-05-05 16:57 41.37285 19.72608 1809 ft 187 kts 176°
2026-05-05 16:57 41.35916 19.72789 2089 ft 208 kts 175°
2026-05-05 16:57 41.34386 19.72990 2305 ft 234 kts 175°
2026-05-05 16:57 41.32692 19.73213 2769 ft 252 kts 175°
2026-05-05 16:58 41.30927 19.73447 3547 ft 257 kts 175°
2026-05-05 16:58 41.29136 19.73684 4324 ft 260 kts 175°
2026-05-05 16:58 41.27317 19.73923 5072 ft 265 kts 175°
2026-05-05 16:58 41.25478 19.73830 5828 ft 267 kts 199°
2026-05-05 16:59 41.23954 19.72464 6596 ft 269 kts 231°
2026-05-05 16:59 41.22984 19.70331 7347 ft 272 kts 245°
2026-05-05 16:59 41.22278 19.67980 8099 ft 275 kts 250°
2026-05-05 16:59 41.21647 19.65601 8873 ft 278 kts 250°
2026-05-05 17:00 41.20983 19.63180 9641 ft 281 kts 249°
2026-05-05 17:00 41.20259 19.60746 10289 ft 289 kts 248°
2026-05-05 17:00 41.19444 19.58182 10500 ft 312 kts 247°
2026-05-05 17:00 41.18535 19.55469 10822 ft 328 kts 246°
2026-05-05 17:01 41.17572 19.52690 11437 ft 334 kts 246°
2026-05-05 17:01 41.16586 19.49885 12129 ft 337 kts 245°
2026-05-05 17:01 41.15584 19.47051 12790 ft 341 kts 245°
2026-05-05 17:01 41.14572 19.44184 13463 ft 345 kts 245°
2026-05-05 17:02 41.13549 19.41287 14113 ft 348 kts 245°
2026-05-05 17:02 41.12518 19.38364 14771 ft 349 kts 245°
2026-05-05 17:02 41.11490 19.35444 15463 ft 351 kts 246°
2026-05-05 17:02 41.10453 19.32501 16092 ft 354 kts 246°
2026-05-05 17:03 41.09406 19.29537 16727 ft 357 kts 246°
2026-05-05 17:03 41.08351 19.26551 17389 ft 359 kts 247°
2026-05-05 17:03 41.07359 19.23506 18021 ft 360 kts 254°
2026-05-05 17:03 41.06836 19.20279 18630 ft 359 kts 266°
2026-05-05 17:04 41.06863 19.16984 19180 ft 359 kts 278°
2026-05-05 17:04 41.07436 19.13764 19726 ft 360 kts 290°
2026-05-05 17:04 41.08371 19.10669 20269 ft 363 kts 292°
2026-05-05 17:04 41.09319 19.07558 20831 ft 365 kts 292°
2026-05-05 17:05 41.10269 19.04422 21404 ft 367 kts 292°
2026-05-05 17:05 41.11220 19.01267 21973 ft 370 kts 291°
2026-05-05 17:05 41.12174 18.98090 22535 ft 372 kts 292°
2026-05-05 17:05 41.13131 18.94892 23093 ft 374 kts 292°
2026-05-05 17:06 41.14092 18.91676 23628 ft 376 kts 292°
2026-05-05 17:06 41.15060 18.88444 24073 ft 378 kts 292°
2026-05-05 17:06 41.16036 18.85192 24531 ft 379 kts 292°
2026-05-05 17:06 41.17012 18.81942 24987 ft 380 kts 292°
2026-05-05 17:07 41.17991 18.78675 25450 ft 381 kts 292°
2026-05-05 17:07 41.18970 18.75403 25903 ft 382 kts 291°
2026-05-05 17:07 41.19946 18.72125 26375 ft 382 kts 291°
2026-05-05 17:07 41.20921 18.68840 26819 ft 383 kts 291°
2026-05-05 17:08 41.21898 18.65543 27264 ft 384 kts 291°
2026-05-05 17:08 41.22877 18.62241 27694 ft 385 kts 291°
2026-05-05 17:08 41.23857 18.58930 28120 ft 386 kts 291°
2026-05-05 17:08 41.24840 18.55605 28534 ft 387 kts 291°
2026-05-05 17:09 41.25813 18.52314 28940 ft 388 kts 291°
2026-05-05 17:09 41.26804 18.48968 29341 ft 389 kts 291°
2026-05-05 17:09 41.27795 18.45619 29729 ft 391 kts 291°
2026-05-05 17:09 41.28790 18.42250 30108 ft 392 kts 290°
2026-05-05 17:10 41.29787 18.38867 30403 ft 394 kts 290°
2026-05-05 17:10 41.30785 18.35466 30705 ft 396 kts 290°
2026-05-05 17:10 41.31796 18.32002 31014 ft 397 kts 290°
2026-05-05 17:10 41.32798 18.28569 31321 ft 399 kts 290°
2026-05-05 17:11 41.33803 18.25126 31712 ft 398 kts 290°
2026-05-05 17:11 41.34792 18.21746 32151 ft 397 kts 290°
2026-05-05 17:11 41.35789 18.18335 32578 ft 395 kts 290°
2026-05-05 17:11 41.36784 18.14934 33005 ft 394 kts 290°
2026-05-05 17:12 41.37776 18.11544 33425 ft 392 kts 290°
2026-05-05 17:12 41.38762 18.08158 33834 ft 391 kts 290°
2026-05-05 17:12 41.39740 18.04789 34211 ft 390 kts 290°
2026-05-05 17:12 41.40715 18.01425 34538 ft 389 kts 290°
2026-05-05 17:13 41.41688 17.98063 34850 ft 389 kts 290°
2026-05-05 17:13 41.42661 17.94694 35142 ft 389 kts 290°
2026-05-05 17:13 41.43631 17.91331 35429 ft 389 kts 290°
2026-05-05 17:13 41.44601 17.87963 35704 ft 389 kts 290°
2026-05-05 17:14 41.45573 17.84592 35959 ft 390 kts 290°
2026-05-05 17:14 41.46544 17.81220 36037 ft 389 kts 291°
2026-05-05 17:14 41.48475 17.74492 36043 ft 388 kts 290°
2026-05-05 17:15 41.50397 17.67757 36043 ft 389 kts 290°
2026-05-05 17:15 41.52323 17.61022 36043 ft 389 kts 290°
2026-05-05 17:16 41.54254 17.54261 36038 ft 391 kts 290°
2026-05-05 17:16 41.56181 17.47474 36042 ft 391 kts 290°
2026-05-05 17:17 41.58104 17.40674 36043 ft 392 kts 290°
2026-05-05 17:17 41.60026 17.33861 36046 ft 392 kts 290°
2026-05-05 17:18 41.61929 17.27094 36047 ft 392 kts 290°
2026-05-05 17:18 41.63851 17.20282 36049 ft 392 kts 290°
2026-05-05 17:19 41.65769 17.13464 36049 ft 392 kts 290°
2026-05-05 17:19 41.67678 17.06637 36050 ft 392 kts 289°
2026-05-05 17:20 41.69573 16.99804 36051 ft 392 kts 289°
2026-05-05 17:20 41.71470 16.92980 36052 ft 391 kts 289°
2026-05-05 17:21 41.73367 16.86150 36053 ft 391 kts 289°
2026-05-05 17:22 41.76199 16.75909 36049 ft 391 kts 289°
2026-05-05 17:22 41.78073 16.69075 36048 ft 391 kts 289°
2026-05-05 17:23 41.79951 16.62241 36042 ft 391 kts 289°
2026-05-05 17:23 41.81829 16.55401 36047 ft 391 kts 289°
2026-05-05 17:24 41.83703 16.48548 36037 ft 392 kts 289°
2026-05-05 17:24 41.85572 16.41674 36036 ft 392 kts 289°
2026-05-05 17:25 41.87438 16.34794 36036 ft 393 kts 289°
2026-05-05 17:25 41.89306 16.27901 36033 ft 393 kts 289°
2026-05-05 17:26 41.91176 16.20998 36035 ft 394 kts 289°
2026-05-05 17:26 41.93039 16.14083 36033 ft 394 kts 289°
2026-05-05 17:27 41.94882 16.07202 36037 ft 394 kts 288°
2026-05-05 17:27 41.96736 16.00266 36038 ft 394 kts 289°
2026-05-05 17:28 41.98594 15.93334 36075 ft 394 kts 289°
2026-05-05 17:28 42.00442 15.86393 36078 ft 394 kts 288°
2026-05-05 17:29 42.02282 15.79449 36077 ft 394 kts 288°
2026-05-05 17:29 42.04123 15.72503 36072 ft 394 kts 288°
2026-05-05 17:30 42.05958 15.65549 36063 ft 394 kts 288°
2026-05-05 17:30 42.07783 15.58599 36059 ft 394 kts 288°
2026-05-05 17:31 42.09609 15.51642 36052 ft 394 kts 288°
2026-05-05 17:31 42.11435 15.44694 36037 ft 394 kts 288°
2026-05-05 17:32 42.13251 15.37732 36033 ft 394 kts 288°
2026-05-05 17:32 42.15063 15.30766 36027 ft 394 kts 288°
2026-05-05 17:33 42.16874 15.23798 36034 ft 394 kts 288°
2026-05-05 17:33 42.18678 15.16830 36031 ft 394 kts 288°
2026-05-05 17:34 42.20479 15.09861 36029 ft 394 kts 288°
2026-05-05 17:34 42.22275 15.02884 36023 ft 393 kts 288°
2026-05-05 17:35 42.24062 14.95911 36025 ft 393 kts 288°
2026-05-05 17:35 42.25842 14.88928 36022 ft 392 kts 287°
2026-05-05 17:36 42.27610 14.81976 36015 ft 391 kts 287°
2026-05-05 17:36 42.29380 14.75021 36015 ft 392 kts 287°
2026-05-05 17:37 42.31150 14.68055 36014 ft 392 kts 287°
2026-05-05 17:37 42.32902 14.61128 36024 ft 392 kts 287°
2026-05-05 17:38 42.34662 14.54149 36032 ft 392 kts 287°
2026-05-05 17:38 42.36417 14.47167 36041 ft 392 kts 287°
2026-05-05 17:39 42.38166 14.40179 36046 ft 392 kts 287°
2026-05-05 17:39 42.39630 14.34323 36047 ft 392 kts 287°
2026-05-05 17:40 42.41366 14.27373 36047 ft 392 kts 287°
2026-05-05 17:40 42.43109 14.20376 36059 ft 392 kts 287°
2026-05-05 17:41 42.45273 14.13585 36053 ft 394 kts 292°
2026-05-05 17:41 42.47621 14.06888 36051 ft 393 kts 292°
2026-05-05 17:42 42.49961 14.00195 36041 ft 393 kts 292°
2026-05-05 17:42 42.52295 13.93486 36038 ft 393 kts 292°